Tracking 31013 objects as of 10-Jul-2025
HD Live streaming from Space Station
objects crossing your sky now

COSMOS 839 DEB

Track COSMOS 839 DEB now!
10-day predictions


NORAD ID: 18428
Int'l Code: 1976-067BM
Perigee: 925.5 km
Apogee: 2,129.4 km
Inclination: 65.7 °
Period: 116.4 minutes
Semi major axis: 7898 km
RCS: 0.0096 m2 (small)
Launch date: July 8, 1976
Source: Commonwealth of Independent States (former USSR) (CIS)
Launch site: PLESETSK MISSILE AND SPACE COMPLEX (PKMTR)

Note: This is SATELLITE DEBRIS
Your satellite tracking list
Your tracking list is empty




NASA's NSSDC Master Catalog

Two Line Element Set (TLE):
1 18428U 76067BM  25191.28857935  .00001328  00000-0  39665-2 0  9999
2 18428  65.7329 137.3692 0762112  53.0379  18.9550 12.36781909560559
Source of the keplerian elements: AFSPC